EW9132 Weather Reports


Display with metric or nautical units.
time (UTC)temp
F
wind
direction
speed
MPH
gust
MPH
rain 1hr
in
rain 24hr
in
rain mn
in
humidity
%
barometer
mb
20260506113503 54 343 10.0 12.0 0.00 0.09 0.09 77 1011.6
20260506113003 54 345 12.0 14.0 0.00 0.09 0.09 77 1011.5
20260506112503 54 340 12.0 15.0 0.00 0.09 0.09 77 1011.6
20260506112024 54 334 10.0 14.0 0.00 0.09 0.09 77 1011.6
20260506111503 54 338 10.0 15.0 0.00 0.09 0.09 78 1011.6
20260506111003 54 339 11.0 12.0 0.00 0.09 0.09 77 1011.5
20260506110503 54 342 12.0 12.0 0.00 0.09 0.09 76 1011.4
20260506110003 54 338 10.0 15.0 0.00 0.09 0.09 76 1011.4
20260506105503 54 328 12.0 12.0 0.00 0.09 0.09 76 1011.4
20260506105003 54 343 12.0 16.0 0.00 0.09 0.09 77 1011.4
20260506104504 54 341 12.0 18.0 0.00 0.09 0.09 76 1011.4
20260506104003 55 344 12.0 14.0 0.00 0.09 0.09 76 1011.4
20260506103503 55 346 13.0 18.0 0.00 0.09 0.09 75 1011.4
20260506103003 55 333 11.0 16.0 0.00 0.09 0.09 75 1011.3
20260506102503 55 344 11.0 15.0 0.00 0.09 0.09 75 1011.3
20260506102003 55 326 10.0 14.0 0.00 0.09 0.09 74 1011.3
20260506101504 56 323 12.0 13.0 0.00 0.09 0.09 73 1011.3
20260506101003 56 328 8.0 12.0 0.00 0.09 0.09 75 1011.2
20260506100503 56 332 11.0 15.0 0.00 0.09 0.09 75 1011.2
20260506100004 56 341 11.0 13.0 0.00 0.09 0.09 74 1011.2
20260506095503 56 343 10.0 11.0 0.00 0.09 0.09 76 1011.2
20260506095003 56 344 13.0 14.0 0.00 0.09 0.09 75 1011.2
20260506094503 57 350 10.0 12.0 0.00 0.09 0.09 75 1011.1
20260506094003 57 343 14.0 18.0 0.00 0.09 0.09 74 1011.1
20260506093503 57 343 12.0 16.0 0.00 0.09 0.09 75 1011.0
20260506093003 56 343 13.0 19.0 0.00 0.09 0.09 75 1011.1
20260506092503 56 344 13.0 15.0 0.00 0.09 0.09 77 1011.1
20260506092003 55 334 10.0 13.0 0.00 0.09 0.09 76 1011.1
20260506091524 55 320 12.0 18.0 0.00 0.09 0.09 76 1011.0
20260506091003 54 343 11.0 18.0 0.00 0.09 0.09 77 1011.1
20260506090503 54 336 11.0 14.0 0.00 0.09 0.09 77 1011.0
20260506090003 54 325 10.0 18.0 0.00 0.09 0.09 78 1011.0
20260506085503 53 325 10.0 11.0 0.00 0.09 0.09 79 1010.9
20260506085003 53 322 11.0 13.0 0.00 0.09 0.09 79 1010.9
20260506084503 53 321 10.0 16.0 0.00 0.09 0.09 79 1010.9
20260506084003 53 320 10.0 16.0 0.00 0.09 0.09 78 1010.9
20260506083503 53 319 10.0 15.0 0.00 0.09 0.09 78 1010.9
20260506083003 53 330 10.0 15.0 0.00 0.09 0.09 78 1010.9
20260506082503 53 323 10.0 14.0 0.00 0.09 0.09 77 1010.9
20260506082003 54 325 9.0 14.0 0.00 0.09 0.09 78 1010.8
20260506081503 54 319 10.0 14.0 0.00 0.09 0.09 77 1010.7
20260506081003 54 330 9.0 9.0 0.00 0.09 0.09 76 1010.7
20260506080503 54 321 11.0 15.0 0.00 0.09 0.09 76 1010.7
20260506073503 54 324 11.0 15.0 0.00 0.09 0.09 77 1010.7
20260506073003 54 324 11.0 20.0 0.00 0.09 0.09 77 1010.6
20260506072503 54 333 10.0 13.0 0.00 0.09 0.09 77 1010.6
20260506072024 54 324 11.0 14.0 0.00 0.09 0.09 76 1010.6
20260506071524 54 319 10.0 15.0 0.00 0.09 0.09 77 1010.6
20260506071003 54 321 12.0 16.0 0.00 0.09 0.09 77 1010.5
20260506070503 53 319 11.0 20.0 0.00 0.09 0.09 77 1010.5
20260506062503 51 329 6.0 11.0 0.00 0.09 0.09 83 1010.5
20260506062024 51 315 6.0 10.0 0.00 0.09 0.09 83 1010.5
20260506061503 50 318 7.0 12.0 0.00 0.09 0.09 83 1010.5
20260506061024 50 313 7.0 10.0 0.00 0.09 0.09 84 1010.5
20260506060503 50 318 6.0 8.0 0.00 0.09 0.09 84 1010.5
20260506051003 49 322 7.0 10.0 0.00 0.09 0.09 86 1010.4
20260506050503 49 324 8.0 11.0 0.00 0.09 0.09 86 1010.4
20260506045003 49 324 8.0 12.0 0.00 0.09 0.09 86 1010.3
20260506044504 49 323 8.0 11.0 0.00 0.09 0.09 86 1010.3
20260506044004 49 322 8.0 9.0 0.00 0.09 0.09 86 1010.4
20260506043503 49 323 8.0 11.0 0.00 0.09 0.09 86 1010.3
20260506043024 49 325 8.0 11.0 0.00 0.09 0.09 86 1010.2
20260506042503 49 323 8.0 10.0 0.00 0.09 0.09 86 1010.3
20260506042003 49 321 8.0 10.0 0.00 0.09 0.09 85 1010.2
20260506041503 49 323 8.0 10.0 0.00 0.09 0.09 86 1010.2
20260506041003 49 325 8.0 11.0 0.00 0.09 0.09 86 1010.2
20260506040503 49 323 8.0 11.0 0.00 0.09 0.09 86 1010.3
20260506040003 49 322 7.0 11.0 0.00 0.09 0.09 86 1010.3
20260506035503 49 321 9.0 12.0 0.00 0.09 0.09 86 1010.3
20260506035003 49 321 8.0 12.0 0.00 0.09 0.09 86 1010.2
20260506034503 49 324 9.0 12.0 0.00 0.09 0.09 86 1010.3
20260506034003 49 322 8.0 10.0 0.00 0.09 0.09 87 1010.3
20260506033503 49 326 7.0 11.0 0.00 0.09 0.09 87 1010.3
20260506033004 49 323 9.0 10.0 0.00 0.09 0.09 87 1010.3
20260506032503 49 324 8.0 10.0 0.00 0.09 0.09 88 1010.3
20260506032003 49 324 8.0 10.0 0.00 0.09 0.09 88 1010.3
20260506031503 49 325 7.0 10.0 0.00 0.09 0.09 89 1010.2
20260506031003 49 323 7.0 10.0 0.00 0.09 0.09 89 1010.3
20260506030503 49 322 7.0 8.0 0.00 0.09 0.09 89 1010.3
20260506030004 48 326 6.0 8.0 0.00 0.09 0.09 89 1010.4
20260506025503 48 334 6.0 6.0 0.00 0.09 0.09 89 1010.3
20260506025003 48 325 7.0 9.0 0.00 0.09 0.09 89 1010.4
20260506024503 48 326 7.0 9.0 0.00 0.09 0.09 89 1010.4
20260506024003 48 325 7.0 8.0 0.00 0.09 0.09 89 1010.3
20260506023503 48 324 6.0 8.0 0.00 0.09 0.09 88 1010.4
20260506023003 48 325 7.0 9.0 0.00 0.09 0.09 88 1010.3
20260506022503 48 326 6.0 8.0 0.00 0.09 0.09 88 1010.3
20260506022003 48 333 5.0 8.0 0.00 0.09 0.09 87 1010.4
20260506021503 48 324 7.0 8.0 0.00 0.09 0.09 87 1010.3
20260506021003 49 322 7.0 9.0 0.00 0.09 0.09 87 1010.4
20260506020503 49 323 7.0 10.0 0.00 0.09 0.09 87 1010.3
20260506020003 49 322 7.0 8.0 0.00 0.09 0.09 87 1010.4
20260506015503 49 322 6.0 8.0 0.00 0.09 0.09 86 1010.5
20260506015003 49 324 7.0 7.0 0.00 0.09 0.09 86 1010.5
20260506014503 49 322 8.0 11.0 0.00 0.09 0.09 86 1010.5
20260506014003 49 323 7.0 10.0 0.00 0.09 0.09 86 1010.5
20260506013503 49 324 7.0 12.0 0.00 0.09 0.09 86 1010.5
20260506013003 49 334 7.0 8.0 0.00 0.09 0.09 86 1010.4
20260506012503 49 343 7.0 11.0 0.00 0.09 0.09 86 1010.5
20260506012003 49 342 8.0 11.0 0.00 0.09 0.09 86 1010.5
20260506011503 49 344 8.0 8.0 0.00 0.09 0.09 86 1010.6
20260506011003 49 341 9.0 13.0 0.00 0.09 0.09 86 1010.5
20260506010503 49 345 8.0 11.0 0.00 0.09 0.09 86 1010.5
20260506010003 49 340 7.0 8.0 0.00 0.09 0.09 87 1010.6
20260506005503 50 338 7.0 9.0 0.00 0.09 0.09 87 1010.6
20260506005003 50 338 6.0 8.0 0.00 0.09 0.09 87 1010.6
20260506004504 50 341 7.0 9.0 0.00 0.09 0.09 87 1010.6
20260506004003 50 342 7.0 9.0 0.00 0.09 0.09 87 1010.6
20260506003503 50 348 8.0 10.0 0.00 0.09 0.09 87 1010.6
20260506003003 50 345 7.0 9.0 0.00 0.09 0.09 87 1010.6
20260506002503 50 344 7.0 11.0 0.00 0.09 0.09 87 1010.7
20260506002003 50 337 6.0 10.0 0.00 0.09 0.09 87 1010.8
20260506001503 50 329 8.0 8.0 0.00 0.09 0.09 87 1010.7
20260506001003 50 328 8.0 10.0 0.00 0.09 0.09 87 1010.7
20260506000503 50 335 8.0 10.0 0.00 0.09 0.09 88 1010.8
20260506000003 50 329 7.0 11.0 0.00 0.09 0.09 88 1010.8
20260505235503 50 328 7.0 8.0 0.00 0.09 0.09 88 1010.8
20260505235003 50 337 8.0 10.0 0.00 0.09 0.09 88 1010.8
20260505234503 50 339 8.0 11.0 0.00 0.09 0.09 88 1010.8
20260505234003 50 341 8.0 12.0 0.00 0.09 0.09 88 1010.8
20260505233503 50 342 9.0 12.0 0.00 0.09 0.09 88 1010.9
20260505233003 50 343 8.0 12.0 0.00 0.09 0.09 89 1010.9
20260505232503 50 348 7.0 8.0 0.00 0.09 0.09 89 1010.9
20260505232003 50 345 7.0 9.0 0.00 0.09 0.09 89 1010.9
20260505231503 50 346 7.0 9.0 0.00 0.09 0.09 88 1010.9
20260505231003 50 346 7.0 9.0 0.00 0.09 0.09 88 1011.0
20260505230503 50 346 6.0 8.0 0.00 0.09 0.09 88 1011.0
20260505230003 50 340 6.0 9.0 0.09 0.09 0.09 88 1011.0
20260505225504 50 343 6.0 7.0 0.09 0.09 0.09 88 1011.0
20260505225003 50 341 6.0 7.0 0.09 0.09 0.09 88 1011.0
20260505224503 50 344 7.0 8.0 0.09 0.09 0.09 88 1011.0
20260505224003 50 345 6.0 10.0 0.09 0.09 0.09 88 1011.1
20260505223503 50 337 6.0 9.0 0.09 0.09 0.09 88 1011.1
20260505223003 50 342 6.0 8.0 0.09 0.09 0.09 88 1011.1
20260505222503 50 346 5.0 8.0 0.09 0.09 0.09 88 1011.1
20260505222003 50 335 7.0 7.0 0.09 0.09 0.09 87 1011.0
20260505221503 50 338 7.0 8.0 0.09 0.09 0.09 87 1011.1
20260505221003 50 341 7.0 10.0 0.09 0.09 0.09 87 1011.2
20260505220503 50 342 8.0 10.0 0.09 0.09 0.09 87 1011.1
20260505220004 51 343 7.0 10.0 0.00 0.00 0.09 87 1011.1
20260505215503 51 338 7.0 10.0 0.00 0.00 0.00 87 1011.1
20260505215003 51 343 7.0 9.0 0.00 0.00 0.00 87 1011.2
20260505214503 51 344 8.0 10.0 0.00 0.00 0.00 87 1011.1
20260505214003 51 340 8.0 9.0 0.00 0.00 0.00 87 1011.1
20260505213503 51 343 7.0 10.0 0.00 0.00 0.00 87 1011.1
20260505213003 51 346 8.0 10.0 0.00 0.00 0.00 87 1011.1
20260505212503 51 345 8.0 11.0 0.00 0.00 0.00 87 1011.1
20260505212003 51 343 9.0 11.0 0.00 0.00 0.00 87 1011.1
20260505211503 51 342 8.0 9.0 0.00 0.00 0.00 87 1011.0
20260505211003 51 340 8.0 12.0 0.00 0.00 0.00 87 1011.0
20260505210503 51 340 8.0 11.0 0.00 0.00 0.00 86 1011.0
20260505210003 51 343 9.0 11.0 0.00 0.00 0.00 86 1011.1
20260505205524 51 341 10.0 12.0 0.00 0.00 0.00 86 1011.0
20260505205003 51 336 9.0 9.0 0.00 0.00 0.00 86 1011.0
20260505204503 51 329 9.0 16.0 0.00 0.00 0.00 86 1011.1
20260505204004 52 339 9.0 12.0 0.00 0.00 0.00 85 1011.1
20260505203503 52 341 11.0 15.0 0.00 0.00 0.00 85 1010.9
20260505203003 52 338 10.0 13.0 0.00 0.00 0.00 85 1010.8
20260505202503 52 340 9.0 11.0 0.00 0.00 0.00 85 1010.9
20260505202003 52 344 10.0 14.0 0.00 0.00 0.00 85 1010.9
20260505201503 52 343 8.0 9.0 0.00 0.00 0.00 84 1010.9
20260505201003 52 337 9.0 11.0 0.00 0.00 0.00 84 1010.8
20260505200503 52 326 11.0 18.0 0.00 0.00 0.00 84 1010.8
20260505200003 52 331 10.0 13.0 0.00 0.00 0.00 84 1010.8
20260505195503 52 338 9.0 13.0 0.00 0.00 0.00 84 1010.8
20260505195003 52 331 9.0 15.0 0.00 0.00 0.00 84 1010.7
20260505194503 52 340 10.0 12.0 0.00 0.00 0.00 84 1010.7
20260505194003 52 340 10.0 13.0 0.00 0.00 0.00 84 1010.6
20260505193503 52 332 10.0 13.0 0.00 0.00 0.00 84 1010.5
20260505193003 52 341 9.0 12.0 0.00 0.00 0.00 84 1010.5
20260505192503 52 342 9.0 11.0 0.00 0.00 0.00 84 1010.4
20260505192024 52 340 9.0 12.0 0.00 0.00 0.00 84 1010.4
20260505191503 52 338 8.0 12.0 0.00 0.00 0.00 84 1010.4
20260505191003 52 330 9.0 14.0 0.00 0.00 0.00 83 1010.4
20260505190503 53 329 9.0 12.0 0.00 0.00 0.00 83 1010.4
20260505190003 53 330 9.0 9.0 0.00 0.00 0.00 83 1010.4
20260505185503 53 333 9.0 14.0 0.00 0.00 0.00 83 1010.4
20260505185003 53 326 10.0 14.0 0.00 0.00 0.00 82 1010.3
20260505184503 53 330 11.0 12.0 0.00 0.00 0.00 82 1010.3
20260505184003 54 323 11.0 18.0 0.00 0.00 0.00 82 1010.3
20260505183503 54 323 12.0 15.0 0.00 0.00 0.00 82 1010.3
20260505183024 54 321 11.0 15.0 0.00 0.00 0.00 82 1010.3
20260505182503 54 327 12.0 15.0 0.00 0.00 0.00 81 1010.3
20260505182003 54 323 12.0 15.0 0.00 0.00 0.00 81 1010.2
20260505181503 54 322 12.0 19.0 0.00 0.00 0.00 81 1010.2
20260505181003 54 318 13.0 20.0 0.00 0.00 0.00 81 1010.1
20260505180503 55 323 11.0 15.0 0.00 0.00 0.00 80 1010.2
20260505180004 55 322 13.0 18.0 0.00 0.00 0.00 80 1010.2
20260505175503 55 322 11.0 16.0 0.00 0.00 0.00 80 1010.1
20260505175003 55 325 12.0 13.0 0.00 0.00 0.00 79 1010.1
20260505174503 55 322 11.0 19.0 0.00 0.00 0.00 79 1010.2
20260505174003 55 325 11.0 14.0 0.00 0.00 0.00 79 1010.1
20260505173503 56 321 13.0 18.0 0.00 0.00 0.00 78 1010.1
20260505173025 56 323 13.0 16.0 0.00 0.00 0.00 78 1010.0
20260505172503 56 322 11.0 14.0 0.00 0.00 0.00 79 1010.1
20260505172003 56 324 12.0 16.0 0.00 0.00 0.00 78 1010.1
20260505171524 56 326 12.0 15.0 0.00 0.00 0.00 77 1010.0
20260505171003 56 320 12.0 19.0 0.00 0.00 0.00 76 1010.0
20260505170503 56 320 13.0 21.0 0.00 0.00 0.00 77 1009.9
20260505170003 56 323 12.0 16.0 0.00 0.00 0.00 77 1010.0
20260505165503 56 326 11.0 16.0 0.00 0.00 0.00 77 1010.0
20260505165003 56 337 11.0 16.0 0.00 0.00 0.00 77 1010.1
20260505164503 57 325 12.0 20.0 0.00 0.00 0.00 77 1010.1
20260505164003 57 322 13.0 16.0 0.00 0.00 0.00 77 1010.0
20260505163503 57 329 11.0 16.0 0.00 0.00 0.00 77 1010.0
20260505163003 57 328 12.0 16.0 0.00 0.00 0.00 78 1009.9
20260505162524 57 338 13.0 16.0 0.00 0.00 0.00 78 1010.0
20260505162024 57 334 12.0 18.0 0.00 0.00 0.00 78 1010.1
20260505161503 57 331 13.0 22.0 0.00 0.00 0.00 78 1010.0
20260505161003 57 339 12.0 15.0 0.00 0.00 0.00 79 1010.0
20260505160503 58 345 13.0 19.0 0.00 0.00 0.00 79 1009.9
20260505153003 58 328 12.0 18.0 0.00 0.00 0.00 79 1010.0
20260505152503 58 324 10.0 16.0 0.00 0.00 0.00 80 1009.9
20260505152003 58 322 11.0 16.0 0.00 0.00 0.00 79 1009.9
20260505151503 59 323 12.0 18.0 0.00 0.00 0.00 79 1010.0
20260505151003 59 318 12.0 15.0 0.00 0.00 0.00 79 1010.0
20260505150524 59 321 12.0 14.0 0.00 0.00 0.00 79 1010.0
20260505140503 60 359 8.0 13.0 0.00 0.00 0.00 81 1010.5
20260505125003 60 25 7.0 10.0 0.00 0.00 0.00 79 1011.1
20260505124503 60 41 7.0 11.0 0.00 0.00 0.00 78 1011.2
20260505124003 61 41 6.0 11.0 0.00 0.00 0.00 82 1011.2
20260505123503 60 25 8.0 9.0 0.00 0.00 0.00 81 1011.2
20260505123003 60 18 9.0 14.0 0.00 0.00 0.00 78 1011.2
20260505122503 60 9 8.0 12.0 0.00 0.00 0.00 78 1011.2
20260505122003 60 19 8.0 9.0 0.00 0.00 0.00 78 1011.1
20260505121503 60 15 9.0 13.0 0.00 0.00 0.00 78 1011.1
20260505121003 60 21 8.0 11.0 0.00 0.00 0.00 80 1011.2
20260505120503 60 11 8.0 8.0 0.00 0.00 0.00 80 1011.2
20260505120004 60 9 9.0 16.0 0.00 0.00 0.00 80 1011.2
20260505115503 60 11 8.0 10.0 0.00 0.00 0.00 79 1011.1
20260505115003 60 8 10.0 12.0 0.00 0.00 0.00 80 1011.2
20260505114503 60 9 9.0 14.0 0.00 0.00 0.00 80 1011.2
20260505114003 59 14 9.0 14.0 0.00 0.00 0.00 79 1011.2